Preview of NWS' New Version of Forecast
This preview is not operational and should not be used for support decisions.

Regional Weather Roundup (RWR)

Issued by Gray - Portland, ME (GYX)

                            
853 
ASUS41 KGYX 181010
RWRGYX
WEATHER ROUNDUP FOR MAINE AND NEW HAMPSHIRE
NATIONAL WEATHER SERVICE GRAY ME
500 AM EST SUN FEB 18 2018

MEZ002-005-006-010-012-015-018-020-021-024-026-027-029-181100-
MAINE
  
CITY           SKY/WX    TMP DP  RH WIND       PRES   REMARKS
PORTLAND       LGT SNOW  32  32 100 VRB6      29.93S VSB 1            
SANFORD        LGT SNOW  30  28  92 N5        29.93R VSB 3/4          
BAR HARBOR     LGT SNOW  32  31  96 E5        29.94F VSB 1            
WISCASSET      LGT SNOW  32  32 100 CALM      29.94F VSB 1            
ROCKLAND       LGT SNOW  32  32 100 CALM      29.94S FOG              
FRYEBURG       LGT SNOW  25  25 100 CALM      29.95R FOG              
LEWISTONAUBURN LGT SNOW  27  27 100 N6        29.95R FOG              
AUGUSTA        LGT SNOW  26  24  92 N9        29.94S VSB 1            
WATERVILLE     LGT SNOW  25  23  92 N6        29.90S FOG              
BANGOR         LGT SNOW  31  30  96 CALM      29.95F VSB 1            
GREENVILLE       N/A     21  19  92 CALM      29.88S                  
MILLINOCKET    SNOW      20  19  96 CALM      29.99S VSB 1/2          
HOULTON        LGT SNOW  21  19  92 N5        29.97F VSB 1            
PRESQUE ISLE   LGT SNOW  18  16  93 S5        29.99F FOG              
FRENCHVILLE    LGT SNOW  15  13  91 SE7       29.94S FOG              
CARIBOU        LGT SNOW  19  15  84 SE5       29.97F FOG              
$$

NHZ002-005-008-009-011-012-014-181100-
NEW HAMPSHIRE
  
CITY           SKY/WX    TMP DP  RH WIND       PRES   REMARKS
PORTSMOUTH     LGT SNOW  32  31  98 CALM      29.90R VSB 3/4          
ROCHESTER      LGT SNOW  30  29  96 NW9       29.91S FOG              
NASHUA         LGT SNOW  29  29 100 NW7       29.94R FOG              
MANCHESTER     LGT SNOW  30  28  92 N7        29.93R VSB 3/4          
CONCORD        LGT SNOW  28  26  92 NW6       29.94R FOG              
PLYMOUTH       LGT SNOW  26  25  96 CALM      29.96R                  
BERLIN         LGT SNOW  25  22  88 NW3       29.92R FOG              
WHITEFIELD     LGT SNOW  26  24  92 CALM      29.93R FOG              
JAFFREY        LGT SNOW  28  28 100 CALM      29.91R FOG              
KEENE          LGT SNOW  28  27  96 CALM      29.95R FOG              
LEBANON        LGT SNOW  28  26  92 CALM      29.96R FOG              
MT WASHINGTON  SNOW       9   9 100 W38         N/A  VSB 0   WCI -16  
$$

VTZ005-007-008-181100-
VERMONT
  
CITY           SKY/WX    TMP DP  RH WIND       PRES   REMARKS
ST JOHNSBURY     N/A     26  25  96 MISG      29.95R                  
MONTPELIER     LGT SNOW  24  24 100 CALM      29.97R FOG              
BURLINGTON     LGT SNOW  31  28  89 W3        29.99R FOG              
$$

MAZ007-012-024-CTZ003-RIZ002-NYZ038-NYZ072-181100-
SOUTHERN NEW ENGLAND AND NY
  
CITY           SKY/WX    TMP DP  RH WIND       PRES   REMARKS
BOSTON         LGT SNOW  33  32  96 N12       29.90R FOG              
WORCESTER      LGT SNOW  28  26  92 NW9       29.89R FOG              
NANTUCKET      LGT RAIN  42  42 100 NE6       29.81F FOG              
PROVIDENCE     LGT SNOW  33  33 100 NW7       29.91R VSB 1            
HARTFORD       LGT SNOW  30  29  96 CALM      29.96R FOG              
ALBANY         FLURRIES  30  27  88 CALM      30.02R                  
NEW YORK CITY  MOCLDY    36  31  82 W10       30.03R                  
$$

ANZ081-ANZ082-ANZ150-NHZ014-MEZ023>029-181100-
COASTAL MARINE OBSERVATIONS
  
STATION/POSITION TIME  TEMP    WIND        PRES    WAVE
                       AIR SEA DIR/SP/G            HT/PER
                 (UTC) (F)     (DEG/KT/KT) (MB)    (FT/S)
MOUNT DESERT ROC 1000   36     110/ 25/ 28 1013.0F
MATINICUS ROCK   1000   36     160/ 13/ 16 1012.6F
ISLE OF SHOALS   1000   32     360/ 12/ 13 1012.6R
JEFFREYS LEDGE   0936      41                N/A     6/ 7
GEORGES BANK BUO 0850   29 42              1029.6    9/10
$$

.............KEY..............
   WCI - WIND CHILL
   TC  - TEMPERATURE IN CELSIUS
   VSB - VISIBILITY IN MILES
   HX  - HEAT INDEX
   FAIR- INDICATES FEW OR NO CLOUDS BELOW 12,000 FT, WITH NO 
         SIGNIFICANT WEATHER AND/OR OBSTRUCTIONS TO VISIBILITY.